Overview Statistics Trail Chart Weather Telemetry Raw packets
 

This is the latest recevied weather packets stored in our database for station/object IR3AS. If no packets are shown the sender has not sent any weather packets the latest 10 day(s).

<< 121 122 123 124 125 126 127 >>
Time Temp. Humidity Pressure Rain* Wind** Luminosity Snow
1787742309 17.78° C 66% 867.8 hPa 0 mm - - -
1787742003 18.33° C 66% 867.8 hPa 0 mm - - -
1787741703 18.33° C 67% 867.7 hPa 0 mm - - -
1787741403 17.78° C 67% 868.3 hPa 0 mm - - -
1787741103 17.22° C 68% 868.2 hPa 0 mm - - -
1787740806 16.67° C 69% 868.2 hPa 0 mm - - -
1787740503 16.11° C 68% 867.9 hPa 0 mm - - -
1787740207 16.11° C 67% 868.4 hPa 0 mm - - -
1787739907 16.11° C 67% 868.6 hPa 0 mm - - -
1787739605 16.11° C 68% 868.5 hPa 0 mm - - -
1787739308 16.11° C 68% 868.7 hPa 0 mm - - -
1787739003 15.56° C 68% 868.9 hPa 0 mm - - -
1787738703 15.56° C 68% 868.4 hPa 0 mm - - -
1787738403 15.56° C 66% 868.1 hPa 0 mm - - -
1787738103 16.11° C 66% 868.1 hPa 0 mm - - -
1787737807 16.11° C 66% 868.2 hPa 0 mm - - -
1787737503 16.11° C 67% 868.2 hPa 0 mm - - -
1787737203 16.11° C 67% 868.9 hPa 0 mm - - -
1787736904 16.11° C 68% 868.7 hPa 0 mm - - -
1787736603 16.11° C 67% 868.5 hPa 0 mm - - -
1787736303 16.11° C 67% 868.5 hPa 0 mm - - -
1787736004 16.11° C 69% 869 hPa 0 mm - - -
1787735704 16.11° C 68% 869 hPa 0 mm - - -
1787735456 16.11° C 68% 868.4 hPa 0 mm - - -
1787735404 16.11° C 68% 868.4 hPa 0 mm - - -

* Rain latest hour (hover to see other rain measurements)
** Current wind speed in m/s (hover to see current wind gust speed)